Location: Dannhausen
(51.8650°N, 10.1026°E)
Time: 14:07:38
(UTC+00:00)

Iridium 2 - Pass Details

Date: 09 April 2020
Orbit: 502 x 518 km, 85.5° (Epoch: 02 June)

Event Time Altitude Azimuth Distance (km) Brightness Sun altitude
Exits shadow 19:33:17 17° 152° (SSE) 1,340 5.3 -13.0°
Maximum altitude 19:35:48 41° 89° (E) 765 4.1 -13.3°
Drops below altitude 10° 19:39:26 10° 18° (NNE) 1,762 6.6 -13.8°
Sets 19:41:39 0° 12° (NNE) 2,656 7.6 -14.1°
